This is the latest recevied weather packets stored in our database for station/object KQ4DLB-13. If no packets are shown the sender has not sent any weather packets the latest 10 day(s).
| Time | Temp. | Humidity | Pressure | Rain* | Wind** | Luminosity | Snow |
|---|---|---|---|---|---|---|---|
| 1777513502 | 15° C | 88% | 989.8 hPa | 0 mm | - | - | - |
| 1777513202 | 15° C | 88% | 989.7 hPa | 0 mm | - | - | - |
| 1777512902 | 15° C | 87% | 989.6 hPa | 0 mm | - | - | - |
| 1777512602 | 15.56° C | 86% | 989.4 hPa | 0 mm | - | - | - |
| 1777512302 | 15° C | 88% | 989.2 hPa | 0 mm | - | - | - |
| 1777512003 | 15° C | 89% | 988.9 hPa | 0 mm | - | - | - |
| 1777511702 | 15° C | 89% | 988.9 hPa | 0 mm | - | - | - |
| 1777511402 | 15.56° C | 90% | 989 hPa | 0 mm | - | - | - |
| 1777511103 | 15.56° C | 90% | 988.9 hPa | 0 mm | - | - | - |
| 1777510802 | 15.56° C | 90% | 988.9 hPa | 0 mm | - | - | - |
| 1777510502 | 15.56° C | 89% | 988.8 hPa | 0 mm | - | - | - |
| 1777510202 | 15.56° C | 89% | 988.6 hPa | 0 mm | - | - | - |
| 1777509902 | 15.56° C | 88% | 988.7 hPa | 0 mm | - | - | - |
| 1777509602 | 15.56° C | 88% | 988.6 hPa | 0 mm | - | - | - |
| 1777509302 | 16.11° C | 87% | 988.5 hPa | 0 mm | - | - | - |
| 1777509002 | 16.11° C | 86% | 988.5 hPa | 0 mm | - | - | - |
| 1777508702 | 16.67° C | 85% | 988.3 hPa | 0 mm | - | - | - |
| 1777508403 | 16.67° C | 83% | 988 hPa | 0 mm | - | - | - |
| 1777508102 | 16.67° C | 81% | 987.7 hPa | 0 mm | - | - | - |
| 1777507802 | 17.22° C | 83% | 987.6 hPa | 0 mm | - | - | - |
| 1777507502 | 17.22° C | 81% | 987.5 hPa | 0 mm | - | - | - |
| 1777507202 | 17.22° C | 80% | 987.5 hPa | 0 mm | - | - | - |
| 1777506902 | 17.78° C | 80% | 987.7 hPa | 0 mm | - | - | - |
| 1777506603 | 17.78° C | 79% | 987.8 hPa | 0 mm | - | - | - |
| 1777506302 | 17.78° C | 78% | 987.8 hPa | 0 mm | - | - | - |
* Rain latest hour (hover to see other rain measurements)
** Current wind speed in m/s (hover to see current wind gust speed)